Find Starlink 30773

NORAD ID: 58161 Int'l Des: 2023-166 Owner: SPXS Country: US Constellation: starlink operational
LEOCIRCULAR

当前视图

正在加载3D地球...

About Starlink 30773

Starlink 30773 (NORAD 58161) is a starlink constellation satellite (v2 mini) launched Oct 29, 2023 by SPXS of US. It operates in LEO, CIRCULAR orbit with a mass of 730.00 kg.

关于 Starlink 30773

正在加载描述...

即将过境

Passes for default location (London). Set your location on the main map for personalized predictions.

高度历史

Loading altitude history...

两行轨道根数

1 58161U 23166M 26170.08396214 -.00000758 00000-0 -13457-4 0 9994
2 58161 53.1610 108.5972 0001475 96.4257 263.6911 15.30196946148703
Epoch: Jun 19, 2026 • Age: 10 hours

当前状态

高度 475.1 km
速度 7.63 km/s
星下点 18.52°N, 177.07°W
发射日期 Oct 29, 2023
运行时间 2.6 years
类型 internet

技术详情

分类 Payload
质量 730.00 kg
干质量 700.00 kg
总质量 730.00 kg
长度 0.30 m
直径 4.10 m
跨度 29.00 m
形状 Box + pan
制造商 SPXS
平台类型 Starlink V2M
阶段状态 In Orbit
所有者/国家 SPXS/US

Most Searched